Weather History for New Bern, NC

Change the Weather History Date:

Monday, September 16, 2013

  Actual Average Record
Temperature  
Mean Temperature 76 °F 74 °F  
Max Temperature 86 °F 83 °F 94 °F (1956)
Min Temperature 65 °F 65 °F 54 °F (2000)
Degree Days  
Heating Degree Days 0 0  
Month to date heating degree days 0 0  
Since 1 July heating degree days 0 0  
Cooling Degree Days 11 9  
Month to date cooling degree days 210 173  
Year to date cooling degree days 1827 1702  
Growing Degree Days 24 (Base 50)    
Moisture  
Dew Point 67 °F    
Average Humidity 78    
Maximum Humidity 94    
Minimum Humidity 61    
Precipitation  
Precipitation 0.30 in 0.21 in 2.02 in (1981)
Month to date precipitation 2.03 3.25  
Year to date precipitation 31.17 40.05  
Snow  
Snow 0.00 in - - ()
Month to date snowfall 0.0  
Since 1 July snowfall 0.0  
Snow Depth 0.00 in    
Sea Level Pressure  
Sea Level Pressure 30.12 in    
Wind  
Wind Speed 4 mph (North)    
Max Wind Speed 18 mph    
Max Gust Speed 26 mph    
Visibility 7 miles    
Events Rain    
T = Trace of Precipitation, MM = Missing Value Source: NWS Daily Summary

Daily Weather History Graph

Daily Weather History Graph

Search for Another Location

Airport:

Trip Planner

Search our weather history database for the weather conditions in past years. The results will help you decide how hot, cold, wet, or windy it might be!

Date:

Astronomy

Sep. 16, 2013 Rise Set
Actual Time 6:51 AM EDT 7:13 PM EDT
Civil Twilight 6:26 AM EDT 7:38 PM EDT
Nautical Twilight 5:56 AM EDT 8:08 PM EDT
Astronomical Twilight 5:26 AM EDT 8:38 PM EDT
Moon 5:16 PM EDT (9/16) 3:41 AM EDT (9/16)
Length of Visible Light 13h 12m
Length of Day
12h 21m
Waxing Gibbous, 90% of the Moon is Illuminated
Sep 16
Waxing Gibbous
Sep 19
Full
Sep 26
Last Quarter
Oct 4
New
Oct 11
First Quarter

Hourly Weather History & Observations

Time (EDT) Temp. Heat Index Dew Point Humidity Pressure Visibility Wind Dir Wind Speed Gust Speed Precip Events Conditions
12:54 AM 66.9 °F - 64.0 °F 90% 30.17 in 10.0 mi Calm Calm - N/A   Partly Cloudy
1:54 AM 66.9 °F - 64.0 °F 90% 30.16 in 10.0 mi Calm Calm - N/A   Clear
2:54 AM 66.0 °F - 64.0 °F 93% 30.14 in 10.0 mi Calm Calm - N/A   Partly Cloudy
3:54 AM 66.0 °F - 64.0 °F 93% 30.13 in 10.0 mi Calm Calm - N/A   Clear
4:07 AM 66.2 °F - 64.4 °F 94% 30.13 in 2.0 mi Calm Calm - N/A   Clear
4:15 AM 66.2 °F - 64.4 °F 94% 30.13 in 4.0 mi Calm Calm - N/A   Clear
4:29 AM 66.2 °F - 62.6 °F 88% 30.12 in 10.0 mi Calm Calm - N/A   Partly Cloudy
4:44 AM 66.2 °F - 62.6 °F 88% 30.12 in 2.5 mi Calm Calm - N/A   Partly Cloudy
4:54 AM 66.9 °F - 64.0 °F 90% 30.12 in 2.0 mi Calm Calm - N/A   Mostly Cloudy
5:03 AM 66.2 °F - 64.4 °F 94% 30.12 in 10.0 mi Calm Calm - N/A   Mostly Cloudy
5:54 AM 66.9 °F - 64.0 °F 90% 30.13 in 9.0 mi Calm Calm - N/A   Clear
6:02 AM 66.2 °F - 64.4 °F 94% 30.13 in 1.8 mi Calm Calm - N/A   Scattered Clouds
6:14 AM 64.4 °F - 64.4 °F 100% 30.13 in 4.0 mi Calm Calm - N/A   Overcast
6:54 AM 64.9 °F - 63.0 °F 93% 30.13 in 4.0 mi Calm Calm - N/A   Overcast
7:01 AM 64.4 °F - 62.6 °F 94% 30.13 in 10.0 mi Calm Calm - N/A   Mostly Cloudy
7:08 AM 66.2 °F - 64.4 °F 94% 30.14 in 5.0 mi Calm Calm - N/A   Mostly Cloudy
7:20 AM 64.4 °F - 62.6 °F 94% 30.13 in 2.0 mi Calm Calm - N/A   Mostly Cloudy
7:54 AM 69.1 °F - 66.0 °F 90% 30.14 in 2.0 mi Calm Calm - N/A   Mostly Cloudy
8:01 AM 69.8 °F - 66.2 °F 88% 30.13 in 6.0 mi Calm Calm - N/A   Mostly Cloudy
8:11 AM 69.8 °F - 68.0 °F 94% 30.14 in 5.0 mi Calm Calm - N/A   Scattered Clouds
8:54 AM 77.0 °F - 71.1 °F 82% 30.14 in 5.0 mi SW 3.5 mph - N/A   Haze
9:54 AM 81.0 °F 85.2 °F 72.0 °F 74% 30.14 in 10.0 mi SSW 4.6 mph - N/A   Clear
10:54 AM 84.0 °F 88.4 °F 70.0 °F 63% 30.13 in 10.0 mi WSW 6.9 mph - N/A   Mostly Cloudy
11:54 AM 77.0 °F - 66.9 °F 71% 30.13 in 10.0 mi North 9.2 mph - 0.00 in Rain Light Rain
12:54 PM 82.9 °F 87.0 °F 70.0 °F 65% 30.11 in 10.0 mi North 8.1 mph - 0.00 in   Scattered Clouds
1:54 PM 78.1 °F - 70.0 °F 76% 30.09 in 10.0 mi West 3.5 mph - 0.00 in   Overcast
2:54 PM 81.0 °F 84.9 °F 71.1 °F 72% 30.07 in 10.0 mi Calm Calm - 0.00 in   Mostly Cloudy
3:54 PM 84.0 °F 88.4 °F 70.0 °F 63% 30.06 in 10.0 mi Calm Calm - N/A   Clear
4:54 PM 84.0 °F 89.0 °F 71.1 °F 65% 30.05 in 10.0 mi Variable 3.5 mph - N/A   Mostly Cloudy
5:54 PM 82.9 °F 88.0 °F 72.0 °F 69% 30.05 in 10.0 mi South 5.8 mph - N/A   Partly Cloudy
6:54 PM 80.1 °F 84.2 °F 73.0 °F 79% 30.07 in 10.0 mi South 4.6 mph - N/A   Scattered Clouds
7:54 PM 75.9 °F - 73.0 °F 91% 30.08 in 10.0 mi Calm Calm - N/A   Clear
8:54 PM 75.9 °F - 69.1 °F 79% 30.12 in 10.0 mi North 12.7 mph 20.7 mph N/A   Mostly Cloudy
9:04 PM 75.2 °F - 69.8 °F 83% 30.13 in 4.0 mi NNE 17.3 mph 21.9 mph 0.14 in Rain Rain
9:07 PM 73.4 °F - 69.8 °F 88% 30.12 in 1.8 mi NNE 12.7 mph 21.9 mph 0.23 in Rain Heavy Rain
9:17 PM 73.4 °F - 69.8 °F 88% 30.13 in 2.5 mi NE 8.1 mph - 0.30 in Rain Heavy Rain
9:19 PM 73.4 °F - 69.8 °F 88% 30.13 in 3.0 mi NNE 8.1 mph - 0.30 in Rain Light Rain
9:30 PM 73.4 °F - 69.8 °F 88% 30.14 in 10.0 mi NNE 13.8 mph 18.4 mph 0.30 in   Overcast
9:54 PM 73.0 °F - 66.0 °F 79% 30.15 in 10.0 mi NNE 12.7 mph 20.7 mph 0.30 in   Mostly Cloudy
10:54 PM 72.0 °F - 66.0 °F 81% 30.16 in 10.0 mi NNE 8.1 mph - N/A   Mostly Cloudy
11:54 PM 71.1 °F - 64.0 °F 78% 30.17 in 10.0 mi NNE 11.5 mph - N/A   Overcast